Fort Myers - Cape Coral Weather Center

Moon Phase Calendar



Online Cameras

 


      

Current Conditions in Burnt Store Marina
9/20/2021 12:56:16 PM

88°F
Feels Like 101
Clouds
Humidity
69%
Pressure
30"
Wind
5.7 mph (SW)
Dew Point
77°F
UV Index
9/10 (Very High)
Visibility
6 mi

Hourly Forecast

Date & Time Mon, Sep 20
12:00 PM
Mon, Sep 20
1:00 PM
Mon, Sep 20
2:00 PM
Mon, Sep 20
3:00 PM
Mon, Sep 20
4:00 PM
Mon, Sep 20
5:00 PM
Mon, Sep 20
6:00 PM
Mon, Sep 20
7:00 PM
Mon, Sep 20
8:00 PM
Mon, Sep 20
9:00 PM
Mon, Sep 20
10:00 PM
Mon, Sep 20
11:00 PM
Tue, Sep 21
12:00 AM
Tue, Sep 21
1:00 AM
Tue, Sep 21
2:00 AM
Tue, Sep 21
3:00 AM
Tue, Sep 21
4:00 AM
Tue, Sep 21
5:00 AM
Tue, Sep 21
6:00 AM
Tue, Sep 21
7:00 AM
Tue, Sep 21
8:00 AM
Tue, Sep 21
9:00 AM
Tue, Sep 21
10:00 AM
Tue, Sep 21
11:00 AM
Tue, Sep 21
12:00 PM
Tue, Sep 21
1:00 PM
Tue, Sep 21
2:00 PM
Tue, Sep 21
3:00 PM
Tue, Sep 21
4:00 PM
Tue, Sep 21
5:00 PM
Tue, Sep 21
6:00 PM
Tue, Sep 21
7:00 PM
Tue, Sep 21
8:00 PM
Tue, Sep 21
9:00 PM
Tue, Sep 21
10:00 PM
Tue, Sep 21
11:00 PM
Wed, Sep 22
12:00 AM
Wed, Sep 22
1:00 AM
Wed, Sep 22
2:00 AM
Wed, Sep 22
3:00 AM
Wed, Sep 22
4:00 AM
Wed, Sep 22
5:00 AM
Wed, Sep 22
6:00 AM
Wed, Sep 22
7:00 AM
Wed, Sep 22
8:00 AM
Wed, Sep 22
9:00 AM
Wed, Sep 22
10:00 AM
Wed, Sep 22
11:00 AM
Condition
Clouds

Clouds

Clouds

Clouds

Rain

Rain

Rain

Clouds

Clouds

Clouds

Clouds

Clouds

Clouds

Clouds

Clouds

Clouds

Rain

Rain

Clouds

Clouds

Clouds

Clouds

Clouds

Clouds

Clouds

Clouds

Rain

Rain

Rain

Rain

Rain

Rain

Rain

Rain

Rain

Rain

Rain

Clouds

Clouds

Clouds

Clouds

Clouds

Clouds

Clouds

Clouds

Clouds

Clouds

Clouds
Temperature 88°F88°F88°F88°F87°F86°F85°F83°F82°F80°F80°F79°F79°F79°F79°F78°F78°F77°F77°F77°F78°F80°F83°F85°F87°F88°F89°F88°F85°F82°F78°F77°F76°F76°F75°F75°F75°F76°F75°F75°F75°F74°F74°F74°F75°F77°F80°F82°F
Feels Like 99°F101°F99°F98°F95°F93°F91°F89°F88°F85°F80°F79°F79°F79°F80°F80°F79°F78°F78°F78°F79°F85°F88°F91°F93°F95°F95°F95°F92°F87°F80°F78°F77°F77°F76°F76°F77°F77°F77°F76°F76°F75°F75°F75°F76°F78°F80°F86°F
Cloudiness 86%86%86%83%84%88%91%93%94%100%100%100%100%98%98%94%90%80%67%65%64%43%45%43%38%44%52%97%98%99%99%99%99%100%100%100%100%98%92%55%64%75%81%84%87%100%99%96%
Visibility 6 mi6 mi6 mi6 mi6 mi6 mi6 mi6 mi6 mi6 mi6 mi6 mi6 mi6 mi6 mi6 mi6 mi6 mi6 mi6 mi6 mi6 mi6 mi6 mi6 mi6 mi6 mi6 mi4 mi4 mi2 mi4 mi6 mi6 mi6 mi6 mi6 mi6 mi6 mi6 mi6 mi6 mi6 mi6 mi6 mi6 mi6 mi6 mi
Precipitation 7%25%39%60%59%59%64%64%68%32%24%32%32%53%51%10%38%21%17%17%17%34%38%31%53%64%81%79%83%86%83%86%86%85%85%78%81%70%70%1%1%2%6%6%7%6%10%6%
Humidity 67%69%66%65%64%63%66%70%75%79%80%81%80%81%81%81%83%87%88%89%87%79%72%66%60%57%55%57%64%73%86%90%88%90%89%86%85%84%83%82%83%83%83%83%82%76%69%65%
Dew Point 76°F77°F76°F75°F74°F72°F72°F73°F73°F73°F73°F73°F73°F73°F72°F72°F72°F73°F73°F73°F73°F73°F73°F72°F72°F71°F71°F71°F72°F73°F74°F74°F72°F73°F71°F70°F71°F70°F70°F69°F69°F69°F69°F69°F69°F69°F69°F69°F
Pressure 30"30"30"30"29.97"29.94"29.97"29.97"30"30"30.03"30.03"30.03"30"30"29.97"29.97"29.97"29.97"30"30"30.03"30.03"30.03"30.03"30.03"30"29.97"29.97"29.97"29.97"30"30.03"30.03"30.03"30.03"30"30"29.97"29.97"29.97"29.97"29.97"29.97"29.97"30"30"30"
Wind Speed 3.8 mph5.7 mph8.4 mph9.8 mph9.1 mph8.5 mph7.3 mph5.8 mph6.5 mph8.2 mph7.7 mph6.7 mph6.3 mph7.1 mph7.1 mph6.6 mph6.8 mph6.2 mph6.1 mph5.9 mph5.5 mph6.7 mph7.1 mph7.4 mph6.6 mph5.4 mph5.1 mph4.8 mph4.8 mph5.6 mph8.2 mph9.3 mph11 mph14.3 mph16.3 mph12.2 mph8.2 mph5.7 mph4.2 mph5 mph5.3 mph5 mph4.8 mph4.5 mph4.8 mph4.6 mph4.2 mph3.8 mph
Wind
Direction
183°
S
216°
SW
231°
SW
242°
WSW
254°
WSW
270°
W
303°
WNW
347°
NNW
19°
NNE
27°
NNE
33°
NNE
39°
NE
38°
NE
54°
NE
63°
ENE
65°
ENE
60°
ENE
59°
ENE
65°
ENE
80°
E
79°
E
94°
E
104°
ESE
112°
ESE
125°
SE
131°
SE
117°
ESE
90°
E
53°
NE
47°
NE
48°
NE
89°
E
132°
SE
143°
SE
157°
SSE
155°
SSE
143°
SE
129°
SE
106°
ESE
89°
E
86°
E
90°
E
87°
E
89°
E
96°
E
96°
E
93°
E
103°
ESE

Daily Forecast

Date High Low Precip. Humidity
Today
Sep 20

Rain
88 °F
77 °F
100%
69%
Tuesday
Sep 21

Rain
89 °F
75 °F
86%
57%
Wednesday
Sep 22

Rain
87 °F
74 °F
81%
55%
Thursday
Sep 23

Rain
88 °F
77 °F
83%
58%
Friday
Sep 24

Rain
86 °F
76 °F
89%
60%
Saturday
Sep 25

Rain
86 °F
79 °F
79%
61%
Sunday
Sep 26

Clear
87 °F
78 °F
3%
57%
Monday
Sep 27

Clouds
87 °F
76 °F
0%
57%
Tuesday
Sep 28

Clear
87 °F
75 °F
0%
49%
Wednesday
Sep 29

Clear
85 °F
74 °F
0%
45%
Thursday
Sep 30

Rain
88 °F
75 °F
78%
50%
Friday
Oct 1

Rain
87 °F
74 °F
40%
51%
Saturday
Oct 2

Rain
85 °F
74 °F
99%
60%
Sunday
Oct 3

Rain
77 °F
74 °F
100%
91%
Monday
Oct 4

Rain
83 °F
75 °F
100%
66%
Tuesday
Oct 5

Rain
76 °F
71 °F
100%
92%

Temperature 8-14 Day Outlook



Precipitation 8-14 Day Outlook




Quick Links
Fort Myers - Cape Coral News
Fort Myers - Cape Coral Photos
Fort Myers - Cape Coral Videos




About Us
Contact Us
Site Map
Search Site
Advertise With Us
   
FortMyers.USGulf.info
THE FORT MYERS - CAPE CORAL WEBSITE

Copyright 2021, Coastal Town
Privacy    |    Legal